Regional Weather Roundup
Issued by NWS

Home | Current Version | Previous Version | Text Only | Print | Product List | Glossary Off
Versions: 1 2 3 4 5 6 7 8 9 10 11 12 13 14 15 16 17 18 19 20 21 22 23 24 25 26 27 28 29 30 31 32 33 34 35 36 37 38 39 40 41 42 43 44 45 46 47 48 49 50

000
ASUS45 KPSR 261210
RWRAZ

ARIZONA HOURLY REGIONAL WEATHER ROUNDUP
NATIONAL WEATHER SERVICE PHOENIX AZ
500 AM MST SUN MAR 26 2017

NOTE: FAIR INDICATES FEW OR NO CLOUDS BELOW 12,000 FEET WITH NO
SIGNIFICANT WEATHER AND/OR OBSTRUCTIONS TO VISIBILITY.

AZZ001>003-036-261300-
NORTHWEST ARIZONA

CITY           SKY/WX    TMP DP  RH WIND       PRES   REMARKS
BULLHEAD CITY  CLEAR     63  39  42 N10       29.92R
KINGMAN        CLEAR     40  33  76 E6        29.98S
6HR MIN TEMP:  40; 6HR MAX TEMP:  49;

$$

AZZ004>008-015-016-018-261300-
NORTH CENTRAL ARIZONA

CITY           SKY/WX    TMP DP  RH WIND       PRES   REMARKS
GRAND CANYON   PTCLDY    23  22  96 CALM      30.03R
6HR MIN TEMP:  23; 6HR MAX TEMP:  37;

WILLIAMS       PTCLDY    25  23  93 SE3       30.02R
PRESCOTT       CLEAR     36  30  79 SW5       30.00R WCI  32
6HR MIN TEMP:  35; 6HR MAX TEMP:  46;

FLAGSTAFF      CLEAR     31  24  75 CALM      29.99R
6HR MIN TEMP:  27; 6HR MAX TEMP:  36;

PAYSON         CLEAR     39  28  65 CALM      30.01R
PAGE           MOCLDY    47  33  58 W5        29.96R
6HR MIN TEMP:  46; 6HR MAX TEMP:  51;

$$

AZZ009>014-017-261300-
NORTHEAST ARIZONA

CITY           SKY/WX    TMP DP  RH WIND       PRES   REMARKS
WINSLOW        PTCLDY    32  25  75 CALM      29.97R
6HR MIN TEMP:  31; 6HR MAX TEMP:  44;

SAINT JOHNS    CLEAR     33  24  69 CALM      29.96S
6HR MIN TEMP:  33; 6HR MAX TEMP:  39;

WINDOW ROCK    CLEAR     32  27  81 CALM      29.95S
6HR MIN TEMP:  32; 6HR MAX TEMP:  40;

SHOW LOW       CLEAR     32  23  69 S6        30.00S WCI  26
$$

AZZ023-261300-
GREATER PHOENIX AREA

CITY           SKY/WX    TMP DP  RH WIND       PRES   REMARKS
PHOENIX        CLEAR     61  32  33 W7        29.87R
6HR MIN TEMP:  58; 6HR MAX TEMP:  66;

BUCKEYE        CLEAR     48  34  57 N6        29.89S
LUKE AFB       CLEAR     53  36  51 W5        29.88R
6HR MIN TEMP:  53; 6HR MAX TEMP:  63;

DEER VALLEY    CLEAR     51  36  56 E5        29.88R
6HR MIN TEMP:  50; 6HR MAX TEMP:  61;

SCOTTSDALE     CLEAR     54  36  50 CALM      29.90R
6HR MIN TEMP:  54; 6HR MAX TEMP:  64;

MESA-GATEWAY   PTCLDY    50  37  62 E6        29.90R
$$

AZZ027-028-261300-
SOUTHWEST MARICOPA COUNTY AND PINAL COUNTY

CITY           SKY/WX    TMP DP  RH WIND       PRES   REMARKS
CASA GRANDE    NOT AVBL
GILA BEND      FAIR      55  31  41 S6        29.89R
6HR MIN TEMP:  54; 6HR MAX TEMP:  67;

$$

AZZ503-504-507>509-261300-
SOUTHEAST ARIZONA

CITY           SKY/WX    TMP DP  RH WIND       PRES   REMARKS
TUCSON         CLEAR     53  27  36 SE5       29.95R
6HR MIN TEMP:  53; 6HR MAX TEMP:  66;

DAVIS-MONTHAN  CLEAR     50  28  42 SE6       29.94R
6HR MIN TEMP:  49; 6HR MAX TEMP:  64;

NOGALES        CLEAR     46  28  49 CALM      29.97R
6HR MIN TEMP:  46; 6HR MAX TEMP:  60;

SIERRA VISTA   CLEAR     48  26  42 W7        30.00R
6HR MIN TEMP:  44; 6HR MAX TEMP:  58;

DOUGLAS        CLEAR     46  26  45 N10       29.97R
6HR MIN TEMP:  43; 6HR MAX TEMP:  59;

SAFFORD        CLEAR     50  27  40 NW7       29.91R
6HR MIN TEMP:  50; 6HR MAX TEMP:  59;

$$

AZZ020-021-025-026-031-261300-
SOUTHWEST ARIZONA

CITY           SKY/WX    TMP DP  RH WIND       PRES   REMARKS
YUMA             N/A     60  48  64 NW6       29.89R
6HR MIN TEMP:  59; 6HR MAX TEMP:  64;

$$

CAZ031-033-041-043-047-048-061-261300-
SOUTHERN CALIFORNIA

CITY           SKY/WX    TMP DP  RH WIND       PRES   REMARKS
DOWNTOWN L.A.  CLOUDY    58  53  84 CALM      30.01S
6HR MIN TEMP:  57; 6HR MAX TEMP:  59;

L.A. AIRPORT   MOCLDY    57  55  93 CALM      30.02S
6HR MIN TEMP:  56; 6HR MAX TEMP:  58;

SAN DIEGO      PTCLDY    59  53  80 CALM      30.03S
6HR MIN TEMP:  59; 6HR MAX TEMP:  63;

BURBANK        PTCLDY    52  46  82 E3        30.01S
6HR MIN TEMP:  51; 6HR MAX TEMP:  57;

ONTARIO        MOCLDY    51  50  96 NW3       30.01S
6HR MIN TEMP:  50; 6HR MAX TEMP:  56;

RIVERSIDE      MOCLDY    52  51  97 CALM      30.01S
6HR MIN TEMP:  51; 6HR MAX TEMP:  56;

PALM SPRINGS   CLEAR     58  48  69 SW3       29.93R
6HR MIN TEMP:  57; 6HR MAX TEMP:  68;

EL CENTRO NAS  CLEAR     54  40  59 W7        29.91R
6HR MIN TEMP:  53; 6HR MAX TEMP:  66;

IMPERIAL       CLEAR     55  43  63 W8        29.89R
6HR MIN TEMP:  55; 6HR MAX TEMP:  64;

BLYTHE         CLEAR     59  41  51 VRB3      29.90R
6HR MIN TEMP:  59; 6HR MAX TEMP:  67;

NEEDLES        CLEAR     62  38  40 CALM      29.92R
6HR MIN TEMP:  60; 6HR MAX TEMP:  70;

$$

NVZ020-UTZ003-261300-
SOUTHERN NEVADA-UTAH

CITY           SKY/WX    TMP DP  RH WIND       PRES   REMARKS
LAS VEGAS      PTCLDY    56  37  49 CALM      29.96S
6HR MIN TEMP:  55; 6HR MAX TEMP:  63;

SALT LAKE CITY PTCLDY    35  34  96 S6        30.01F FOG     WCI  30
6HR MIN TEMP:  34; 6HR MAX TEMP:  40;

$$

NMZ009-TXZ055-261300-
NEW MEXICO-WEST TEXAS

CITY           SKY/WX    TMP DP  RH WIND       PRES   REMARKS
ALBUQUERQUE    PTCLDY    38  27  64 SE7       29.91F WCI  33
6HR MIN TEMP:  38; 6HR MAX TEMP:  51;

EL PASO        MOCLDY    61  25  25 NW8       29.90R
6HR MIN TEMP:  60; 6HR MAX TEMP:  70;

$$


........................KEY........................
SKY/WX - SKY CONDITION/WEATHER
TMP    - TEMPERATURE IN FAHRENHEIT
DP     - DEW POINT IN FAHRENHEIT
RH     - RELATIVE HUMIDITY IN PERCENT
WIND   - DIRECTION AND SPEED IN MILES PER HOUR (MPH)
VRB    - VARIABLE WIND DIRECTION
PRES   - MEAN SEA LEVEL PRESSURE IN INCHES OF MERCURY
         F - FALLING PRESSURE   R - RISING PRESSURE
         S - STEADY PRESSURE
VSB    - VISIBILITY IN MILES
HX     - HEAT INDEX IN FAHRENHEIT
WCI    - WIND CHILL INDEX IN FAHRENHEIT
TC     - TEMPERATURE IN CELSIUS WHICH IS ALSO KNOWN AS
         TEMPERATURE IN CENTIGRADE
AFB    - AIR FORCE BASE
         LUKE AFB IS LUKE AIR FORCE BASE
         DAVIS-MONTHAN IS DAVIS-MONTHAN AIR FORCE BASE
NAS    - NAVAL AIR STATION
         EL CENTRO NAS IS EL CENTRO NAVAL AIR STATION
N/A    - NOT AVAILABLE




USA.gov is the U.S. government's official web portal to all federal, state and local government web resources and services.